Skip Page Navigation
NASA JPL Caltech
NASA Logo - Jet Propulsion Laboratory + View the NASA Portal
+ Near-Earth Object (NEO) Program
Search JPL
JPL Home Earth Solar System Stars & Galaxies Technology
JPL Solar System Dynamics
BODIES ORBITS EPHEMERIDES TOOLS PHYSICAL DATA DISCOVERY FAQ SITE MAP
JPL Small-Body Database Browser
Search: [ help ]  
11779 Zernike (4197 T-3)
Classification: Main-belt Asteroid          SPK-ID: 2011779
Ephemeris | Orbit Diagram | Orbital Elements | Physical Parameters | Discovery Circumstances ]

[ show orbit diagram ]
Orbital Elements at Epoch 2456400.5 (2013-Apr-18.0) TDB
Reference: JPL 1 (heliocentric ecliptic J2000)
 Element Value Uncertainty (1-sigma)   Units 
e .1128571944389481 7.1717e-08  
a 2.620926864778578 2.0862e-08 AU
q 2.32513641199 1.858e-07 AU
i 4.682271839951913 7.8813e-06 deg
node 69.66667310010425 8.438e-05 deg
peri 290.4175253968066 9.2814e-05 deg
M 146.5599725980444 3.8015e-05 deg
tp 2455769.551873891496
(2011-Jul-27.05187389)
0.00016107 JED
period 1549.818285119495
4.24
1.8504e-05
5.066e-08
d
yr
n .2322852965773616 2.7734e-09 deg/d
Q 2.916717317567156 2.3216e-08 AU
  Orbit Determination Parameters
   # obs. used (total)      808  
   data-arc span      12970 days (35.51 yr)  
   first obs. used      1977-10-07  
   last obs. used      2013-04-11  
   planetary ephem.      DE405  
   SB-pert. ephem.      SB405-CPV-2  
   condition code      0  
   fit RMS      .56999  
   data source      ORB  
   producer      Otto Matic  
   solution date      2013-Apr-29 13:46:04  

Additional Information
 Earth MOID = 1.32658 AU 
 T_jup = 3.391 
[ show covariance matrix ]

Ephemeris | Orbit Diagram | Orbital Elements | Physical Parameters | Discovery Circumstances ]

Physical Parameter Table
Parameter Symbol Value Units Sigma Reference Notes
absolute magnitude H 14.3 mag n/a PDS3 (MPC 35905)  

11779 Zernike           Discovered 1977 Oct. 16 by C. J. van Houten and I. van Houten-Groeneveld on Palomar Schmidt plates taken by T. Gehrels.
Frits Zernike (1888-1966), Nobel Laureate in physics exactly half a century ago, was professor of physics and rector at Groningen University and a former assistant of Jacobus Kapteyn. By inventing the phase contrast microscope, he made a major contribution to the "telescope" of medical researchers and biologists.
NOTE: some special characters may not display properly (any characters within {} are an attempt to place the proper accent above a character)
Reference: 20031110/MPCPages.arcLast Updated: 2003-11-12

Alternate Designations
 4197 T-3 = 1992 ED6 
Ephemeris | Orbit Diagram | Orbital Elements | Physical Parameters | Discovery Circumstances ]
ABOUT SSD CREDITS/AWARDS PRIVACY/COPYRIGHT GLOSSARY LINKS
FirstGov 2013-May-25 09:56 UT
(server date/time)  
NASA Home Page
Site Manager:   Donald K. Yeomans
Webmaster  Alan B. Chamberlin